GFSNGP_500_avort_024.txt.gz
Vorticity
3 4 3 2 2 3 5 3 4 5 4 9 7 8 11 13 12 11 10 8 5 4 4 4 4 3 3 5 5 7 8 6 3 8 9 11 10 15 24 27 22 21 23 25
3 3 1 2 4 3 4 3 6 4 5 6 6 6 11 12 9 7 7 5 3 5 6 4 3 3 6 6 4 5 4 5 8 9 12 10 19 22 30 34 35 38 8 -5
2 3 4 3 1 5 3 7 4 5 6 3 9 6 9 11 11 10 4 4 5 6 4 3 4 6 5 3 5 4 5 8 10 10 13 16 26 40 36 37 52 13 3 13
3 3 4 3 4 5 3 7 5 7 3 4 8 5 7 10 14 9 6 6 6 3 4 6 5 6 5 3 5 5 9 10 11 12 13 27 43 36 39 30 21 20 18 17
3 3 2 3 3 1 8 11 3 6 7 8 8 4 5 6 13 9 6 6 2 4 5 4 3 6 4 3 6 8 10 10 10 13 27 40 35 33 7 11 6 5 4 10
4 2 4 3 1 5 6 6 6 6 7 8 6 4 6 10 15 10 5 2 2 5 5 3 5 5 5 6 8 9 10 9 11 24 39 32 31 8 12 8 5 6 5 13
4 4 5 4 2 5 5 6 3 4 8 7 4 6 6 16 12 6 2 3 5 5 4 4 3 5 7 9 8 11 10 11 23 37 32 25 23 6 8 9 3 4 5 12
6 6 5 4 4 6 -1 10 6 7 8 6 6 1 9 15 9 3 4 6 4 3 5 5 7 7 9 9 11 12 9 18 36 32 22 24 13 6 11 8 5 4 5 12
5 6 7 4 10 4 3 4 7 10 7 5 4 2 16 9 6 5 4 5 3 5 5 10 9 10 8 10 12 8 15 27 33 30 20 19 9 7 13 8 6 4 6 11
6 4 8 9 10 -1 7 8 7 7 7 6 3 15 8 7 4 3 5 2 5 7 10 12 10 7 9 13 10 15 26 28 34 24 18 13 8 7 12 9 7 6 6 11
9 8 3 8 -1 7 8 9 9 8 5 4 10 8 7 3 1 2 4 7 9 10 12 10 8 10 12 9 13 25 24 26 31 18 16 12 8 10 13 10 7 7 6 10
10 13 9 4 11 9 9 9 7 6 7 8 9 7 4 2 5 6 7 10 11 11 9 8 10 10 9 14 23 22 25 23 23 18 14 14 7 5 6 9 8 8 8 9
8 9 9 5 6 9 8 8 9 9 8 8 6 5 4 6 6 8 9 10 13 9 8 10 11 10 18 19 24 21 25 21 19 19 14 15 11 7 11 13 10 6 8 7
7 9 6 5 8 10 9 9 9 10 6 5 5 1 7 8 8 9 10 11 9 9 9 11 13 18 17 20 22 20 22 22 18 15 16 15 13 10 10 13 10 6 9 6
7 8 9 9 9 11 10 12 9 3 2 4 7 9 7 7 10 11 12 9 9 9 8 15 17 16 19 20 18 20 18 21 15 13 16 13 11 12 11 13 9 8 9 5
10 10 9 11 13 16 9 3 3 4 5 6 7 6 5 10 14 12 8 7 8 11 17 15 15 16 19 18 18 17 16 22 15 9 10 12 10 10 15 12 8 11 7 6
7 2 1 6 13 8 5 6 5 6 7 8 12 7 12 14 13 7 4 9 15 19 14 13 17 19 18 19 17 17 15 18 19 14 10 13 12 14 12 10 11 10 6 7
10 2 2 7 10 3 2 5 8 7 10 13 9 12 17 8 3 4 14 17 15 13 14 19 19 19 19 17 16 17 16 15 18 18 17 11 13 12 12 9 12 9 7 6
11 10 6 3 4 7 6 8 11 14 5 11 16 10 3 2 7 16 16 17 15 17 19 22 21 19 18 16 17 17 16 12 14 18 12 14 11 12 9 13 13 7 8 6
4 8 9 7 7 9 11 16 2 10 20 12 3 1 4 13 15 18 17 18 18 23 24 22 19 22 21 18 16 17 16 10 10 13 11 11 11 9 7 12 11 8 7 7
9 8 10 15 13 11 2 14 18 12 4 0 2 17 15 16 16 17 19 24 16 15 21 18 18 19 20 19 12 17 19 15 10 8 13 9 11 8 8 10 11 7 7 7
17 19 13 7 3 14 16 11 4 -2 11 15 14 17 18 14 14 19 17 12 12 17 18 13 15 20 22 15 13 11 14 16 14 14 14 11 13 9 9 12 12 5 7 8
8 -0 1 15 18 4 -4 8 17 13 14 16 15 14 13 12 13 13 18 14 14 17 14 14 16 22 13 7 5 5 7 11 15 12 11 15 15 10 7 7 15 8 5 10
17 20 10 -1 3 17 17 8 15 16 15 14 12 11 9 12 12 19 18 16 16 16 13 9 15 20 5 2 2 2 4 7 9 9 15 14 10 13 15 12 10 13 7 6
2 15 17 13 8 11 15 16 16 14 11 9 9 10 13 12 13 10 21 15 17 16 13 7 7 10 16 12 8 6 6 8 10 11 10 13 16 12 10 14 12 9 7 8
8 9 13 17 18 15 14 12 13 6 9 11 14 14 13 10 6 15 27 13 16 15 12 9 9 10 10 12 12 12 14 14 13 13 13 13 16 14 11 13 11 8 6 7
18 16 13 13 13 11 10 5 9 14 16 17 16 11 8 8 7 26 26 12 13 13 14 13 12 7 12 14 15 13 11 15 15 14 15 19 20 20 11 9 8 8 9 10

GFSNGP_500_avort_027.txt.gz
Vorticity
1 3 3 3 1 4 4 2 4 3 9 2 7 5 4 7 7 7 5 9 14 13 9 5 4 6 5 3 5 5 2 1 -1 5 8 9 6 9 13 12 30 43 38 36
4 2 2 2 2 3 4 3 5 4 7 6 6 5 4 5 6 6 6 5 10 12 8 5 5 5 1 5 5 3 2 1 4 8 8 8 9 14 14 30 39 36 21 15
1 1 3 4 5 3 3 3 3 8 7 5 4 6 6 7 7 5 6 4 12 14 8 7 4 1 4 4 3 4 5 5 8 9 10 10 11 11 27 40 32 20 10 6
0 2 2 1 3 6 4 4 4 4 7 4 5 6 5 5 8 4 5 6 14 12 9 5 3 4 5 4 6 3 6 9 10 11 10 10 11 20 46 29 23 9 9 5
1 2 2 5 3 2 5 5 3 8 5 3 7 5 6 9 5 5 3 7 13 12 7 3 5 4 4 4 6 7 9 11 10 8 10 8 19 34 36 27 15 8 8 5
5 4 4 5 3 5 4 5 4 8 4 -0 9 7 6 6 6 7 2 12 14 7 5 4 3 3 5 8 8 8 10 8 10 8 9 24 27 42 25 21 11 9 8 6
7 5 5 6 6 6 4 1 6 8 4 3 8 6 6 7 7 5 5 14 7 5 2 1 6 5 7 6 7 10 9 9 9 11 24 20 35 32 21 15 7 9 10 6
8 7 8 7 8 7 5 5 6 9 2 7 10 7 9 7 5 4 12 8 5 2 2 5 5 7 6 9 11 9 9 7 15 22 20 29 33 24 19 11 6 10 10 7
6 8 9 7 6 6 4 8 6 2 -0 8 8 8 7 5 7 9 9 4 3 3 4 6 8 7 9 11 9 9 6 17 23 19 23 26 28 19 16 9 8 11 11 9
11 12 7 7 6 10 9 4 7 1 10 11 7 7 6 8 8 9 5 4 4 5 9 7 8 9 12 9 8 7 22 22 18 23 23 23 22 17 15 9 6 7 9 9
10 11 6 9 9 9 12 10 3 8 9 7 8 5 6 10 11 5 3 5 7 8 7 7 12 12 8 5 9 19 19 17 20 19 23 23 20 16 15 12 7 8 10 10
9 8 9 12 11 8 7 5 8 8 8 7 5 6 13 10 4 2 5 7 9 6 6 11 13 8 4 12 21 19 16 20 18 21 21 22 16 16 15 13 10 9 11 11
10 11 11 11 7 5 7 8 9 8 7 9 13 16 5 3 2 6 7 9 10 8 11 11 6 7 14 19 18 15 21 18 19 20 18 20 15 17 13 13 11 10 11 9
10 8 7 5 6 8 9 9 9 10 8 11 9 4 4 6 6 9 9 10 8 12 10 4 8 14 19 15 16 20 20 19 19 19 16 20 13 11 10 10 9 9 11 7
4 6 7 9 12 9 10 7 3 2 6 7 5 4 3 7 9 9 8 9 13 9 4 10 15 14 18 19 20 21 19 19 18 18 15 20 16 8 11 11 10 11 10 9
8 9 10 14 14 13 14 8 1 6 11 9 2 2 7 7 9 6 11 12 8 4 11 12 14 21 20 18 21 20 17 19 17 17 13 19 20 14 14 13 13 11 8 11
15 13 4 5 7 8 12 8 10 8 -0 3 8 7 8 11 8 13 12 5 8 11 13 17 23 20 11 15 22 20 20 19 17 17 11 16 20 17 12 11 10 9 10 14
12 8 7 10 7 6 7 10 9 6 8 10 7 9 10 9 15 8 4 12 9 17 16 23 18 10 11 19 24 21 21 18 15 17 11 12 18 14 14 11 10 8 13 12
0 -0 2 10 6 6 5 8 12 11 12 10 8 6 16 12 3 8 10 14 15 17 16 16 12 12 17 21 19 20 18 15 14 19 14 8 13 11 12 10 8 7 12 10
4 10 12 7 9 10 12 16 15 11 8 4 16 11 2 10 7 13 17 13 11 15 15 16 16 15 19 18 17 21 18 13 12 15 19 15 11 11 9 14 7 9 8 11
15 11 11 8 9 13 13 14 6 -1 15 13 -2 9 8 12 16 16 12 13 11 14 13 16 15 18 19 14 17 18 11 6 6 9 12 14 15 14 15 11 11 9 9 12
7 9 13 14 16 14 7 3 9 12 0 8 11 13 15 15 13 10 10 10 14 9 16 16 20 21 17 10 13 16 5 4 2 3 5 8 10 14 15 13 16 11 8 6
16 15 13 14 5 2 10 11 5 14 13 12 17 12 11 13 11 8 10 14 12 10 9 22 24 20 15 10 6 8 15 13 9 8 5 7 10 11 10 16 15 12 12 12
5 1 -1 4 10 3 11 14 11 13 16 14 14 14 13 7 8 13 16 14 14 10 3 32 24 16 14 11 8 9 10 10 11 11 12 14 12 12 12 12 14 17 11 12
15 20 19 21 11 11 12 13 14 12 13 15 11 3 12 12 14 18 16 15 13 10 7 41 20 13 14 12 12 9 8 13 15 16 12 11 15 14 12 14 17 19 16 11
11 10 10 11 12 14 14 14 14 13 7 7 5 18 7 16 18 14 14 12 12 11 19 35 16 11 14 12 9 4 8 9 11 14 14 14 15 8 12 16 15 20 19 11
17 14 12 12 11 13 12 7 10 12 15 17 15 7 17 17 13 14 13 14 15 15 24 25 13 10 13 12 8 4 6 5 7 9 10 9 12 14 12 11 12 14 17 19

GFSNGP_500_avort_033.txt.gz
Vorticity
9 8 5 5 3 4 2 2 2 1 2 3 4 4 4 4 4 7 7 4 3 6 6 6 6 6 8 7 5 6 10 9 5 3 3 2 7 7 9 8 6 6 12 33
8 6 2 4 2 3 4 3 2 3 0 5 3 5 4 5 5 6 7 6 4 4 6 7 7 8 8 5 6 7 9 7 4 4 3 7 9 8 8 7 6 11 31 31
7 6 4 3 4 3 2 1 2 3 1 3 5 5 5 8 7 6 7 8 5 2 5 7 7 8 6 7 7 8 9 5 4 4 7 11 6 7 7 7 13 29 30 25
6 4 2 4 2 1 2 2 3 2 3 3 4 6 5 7 7 7 5 9 8 3 6 8 8 7 7 7 8 8 6 3 6 9 8 7 7 7 7 14 28 30 23 22
7 9 4 5 5 5 4 4 4 5 5 6 6 7 7 6 9 6 6 10 7 2 9 8 8 8 7 9 9 5 2 7 10 7 8 8 7 8 16 26 23 23 23 21
8 7 8 11 12 10 10 11 11 9 9 8 8 8 10 8 8 6 10 11 9 6 9 10 7 7 10 7 4 3 7 10 7 7 10 7 7 17 23 19 22 24 21 21
9 8 8 10 10 8 7 4 8 10 10 12 12 9 8 6 8 12 11 11 7 7 6 9 9 6 6 5 4 4 10 8 5 11 9 7 16 25 17 12 25 24 21 19
6 4 7 10 9 10 9 9 10 11 11 9 7 7 8 10 11 12 8 7 6 8 10 9 8 6 3 2 1 6 9 2 14 9 5 16 25 17 9 20 25 21 19 16
9 9 7 3 8 9 10 10 10 11 10 10 10 10 10 12 10 7 6 7 9 10 9 8 5 6 -0 4 4 5 3 9 11 5 15 22 22 11 14 25 24 19 18 15
7 9 4 7 13 11 10 10 10 10 10 11 11 11 9 8 6 8 10 9 10 11 5 8 9 1 5 7 2 4 7 11 7 15 19 24 15 10 21 25 23 17 18 13
11 11 11 15 12 12 11 10 11 11 10 9 9 7 6 8 9 10 8 11 9 4 12 8 4 3 2 -1 7 6 10 8 14 17 24 19 12 16 26 26 20 16 17 11
14 13 12 11 10 9 11 10 9 9 8 7 7 9 11 11 10 8 8 6 7 9 5 10 6 5 -2 7 7 10 10 15 16 21 21 13 16 22 24 23 17 16 18 12
8 10 11 9 9 8 7 7 7 6 8 11 12 11 8 5 9 10 6 7 7 6 9 7 5 1 7 10 11 9 15 13 19 21 17 14 20 22 23 18 15 15 18 14
7 8 7 7 7 7 8 10 12 13 15 14 12 9 5 9 3 6 10 12 10 13 4 -3 5 8 10 11 8 13 13 19 19 18 13 20 20 23 18 18 14 12 18 15
7 7 8 10 11 13 12 10 11 9 7 7 5 5 5 7 17 15 8 13 11 -13 9 15 8 8 11 11 15 16 17 16 19 18 16 22 19 23 15 18 14 11 12 12
9 12 9 9 5 6 9 7 7 6 8 9 3 6 6 16 9 10 7 4 -0 11 11 -1 9 13 12 14 14 15 13 20 16 14 21 19 19 18 12 16 18 11 11 10
15 11 6 6 9 9 8 9 7 7 7 11 10 17 18 16 15 6 -2 -1 7 1 5 12 11 13 16 12 14 12 19 17 15 14 25 17 17 11 8 10 13 14 16 13
9 8 6 6 7 7 6 8 9 12 13 14 14 18 16 9 5 4 6 1 2 18 14 8 20 14 14 14 9 15 14 15 17 14 27 15 14 10 6 3 4 5 7 12
4 5 5 7 8 8 8 10 16 12 25 22 12 10 6 4 6 2 5 19 8 13 19 19 14 13 10 9 16 9 14 13 16 14 28 16 8 13 9 5 5 6 5 7
5 4 3 7 13 17 18 16 22 18 14 9 3 4 1 3 11 14 11 20 19 11 18 15 12 8 13 15 9 12 16 14 12 16 28 16 10 7 7 10 11 11 11 11
8 10 11 9 12 17 20 18 13 12 18 21 21 19 19 22 22 13 11 16 17 15 10 8 8 13 11 8 17 19 15 14 11 22 25 15 13 8 9 10 11 15 14 12
14 18 17 18 18 18 15 11 4 8 14 19 12 6 4 8 10 13 15 13 12 10 9 10 12 12 12 14 17 18 14 14 17 23 22 13 13 10 9 9 11 11 14 11
11 13 16 11 7 11 19 16 11 7 3 4 6 7 8 10 14 14 14 14 14 14 16 18 15 16 18 17 16 15 13 16 19 21 17 13 12 12 7 6 5 6 8 9
11 9 17 16 8 14 12 11 4 0 3 6 8 11 15 17 14 14 14 14 12 7 10 14 13 14 14 15 14 13 13 15 19 19 15 12 12 11 9 7 5 5 7 7
16 13 8 11 8 6 5 -2 2 5 3 6 11 14 13 12 14 18 17 18 19 19 18 18 15 11 11 12 12 13 14 15 17 17 15 11 12 12 11 9 8 9 8 7
13 11 11 8 9 2 1 -0 4 3 3 9 12 13 18 20 18 15 15 18 18 16 14 13 11 12 13 14 15 15 16 16 17 16 15 12 11 12 10 8 8 7 8 9
10 5 9 6 5 2 1 1 2 1 6 16 20 23 18 14 13 15 16 15 15 14 15 15 15 16 15 17 17 17 17 16 17 16 14 13 12 9 9 8 8 7 9 13

GFSNGP_500_avort_036.txt.gz
Vorticity
9 9 8 10 7 2 2 1 4 1 2 2 3 2 2 2 3 4 4 3 6 8 7 5 8 8 7 4 6 7 7 8 8 6 11 7 3 6 10 8 8 11 4 8
9 6 9 8 7 6 6 5 3 3 3 2 1 2 2 2 2 4 7 6 8 9 5 6 6 9 10 3 9 8 8 8 9 11 4 3 5 8 8 6 13 3 7 14
8 5 7 9 6 4 3 1 2 2 1 2 2 2 3 3 5 8 9 10 10 6 7 6 8 12 8 6 8 9 8 9 9 4 3 3 6 10 2 13 3 10 15 30
7 8 7 7 7 6 4 3 2 1 3 3 3 4 6 8 10 12 10 9 8 6 7 7 11 11 8 8 9 9 9 5 4 4 2 2 7 3 8 8 7 14 29 17
6 8 7 7 8 7 6 6 6 5 6 8 10 11 10 11 10 10 9 7 7 6 10 11 14 8 7 8 11 8 10 2 3 5 1 8 5 5 9 8 14 25 22 12
9 9 9 10 12 11 12 12 11 11 10 9 8 9 9 9 8 8 9 7 10 12 14 9 7 6 9 10 9 9 6 -4 6 3 3 7 9 4 9 14 18 24 14 18
10 9 7 7 7 6 4 2 9 10 9 9 9 10 10 10 10 11 11 13 14 10 8 7 7 10 9 10 10 4 -12 10 6 3 6 4 4 8 11 16 24 20 15 25
4 4 3 5 4 7 6 7 9 10 11 12 13 12 11 11 11 13 14 10 7 6 6 9 10 10 9 6 20 7 9 10 1 3 7 10 4 12 16 22 24 14 22 25
6 5 2 2 5 6 8 11 12 12 10 11 10 10 10 11 11 9 6 5 6 7 11 9 7 10 17 8 -15 6 9 3 4 5 8 4 8 17 17 24 18 17 24 23
7 4 3 8 10 12 11 11 10 10 10 10 9 10 9 7 5 5 7 10 9 8 6 9 6 9 0 3 11 13 -3 4 6 9 7 12 17 14 21 24 18 21 23 19
9 7 11 12 10 10 10 11 11 10 10 10 9 7 6 7 8 10 9 10 8 5 11 2 9 17 21 -6 1 5 -4 6 6 9 11 15 15 20 26 18 20 22 19 18
11 12 12 12 11 12 11 10 8 8 8 7 7 9 11 10 12 12 10 7 8 6 10 9 13 -3 -3 7 13 -3 4 10 6 12 20 19 19 23 20 19 20 21 17 16
11 13 11 9 7 9 8 8 8 9 11 12 12 9 10 9 7 4 7 7 7 13 17 21 1 -9 13 18 13 2 7 5 15 19 21 16 19 20 17 21 20 18 18 15
10 7 7 9 9 8 7 9 11 11 7 7 10 9 6 5 6 6 5 21 11 2 1 7 14 19 16 3 -8 -5 7 17 21 24 16 18 18 19 18 21 18 16 16 17
8 9 8 7 7 7 10 10 7 6 9 8 6 5 6 7 10 11 20 11 13 11 11 19 15 8 -2 -8 6 7 23 25 18 13 18 14 15 17 21 19 16 13 14 14
7 7 8 7 9 11 10 9 8 5 5 5 7 9 10 9 13 20 8 -5 6 10 10 7 -3 -6 1 12 16 25 16 20 12 15 16 12 15 15 24 16 14 7 6 7
9 9 9 13 13 10 5 5 6 7 7 8 7 11 13 12 14 12 15 18 4 2 3 4 -2 13 19 19 13 19 17 16 11 14 10 14 14 13 26 16 12 10 6 4
14 15 10 4 3 6 7 7 6 4 7 14 17 18 21 22 19 14 19 10 -2 -3 10 17 23 17 15 19 17 14 12 11 10 9 14 19 13 11 28 19 8 9 11 13
4 4 5 6 6 3 2 6 14 20 18 17 16 19 12 9 10 8 11 19 25 24 13 12 12 15 15 13 11 10 11 14 13 15 15 16 13 12 29 20 11 7 7 9
4 5 4 5 9 17 17 17 15 16 15 15 15 15 18 19 24 20 12 7 8 8 15 18 17 15 14 14 14 13 15 16 15 16 15 15 13 16 28 18 12 10 8 8
4 10 13 14 16 15 13 12 12 11 11 18 16 10 13 4 10 3 -1 2 10 14 16 15 13 12 12 13 10 7 13 14 13 16 16 14 14 20 24 16 12 10 10 8
18 15 14 10 8 9 12 11 18 14 12 10 7 1 6 0 3 5 2 6 16 20 18 19 21 19 21 22 21 20 19 16 12 13 15 15 15 19 20 13 12 11 9 8
9 7 6 7 8 9 17 13 11 9 8 8 7 2 1 -0 -1 1 1 16 24 23 21 17 15 13 13 16 18 18 17 14 11 13 14 14 15 16 16 12 11 11 11 9
4 5 7 10 13 12 13 9 10 6 9 6 5 1 3 3 -0 1 14 27 20 14 14 15 14 14 14 14 13 12 12 14 15 15 16 16 15 15 13 12 12 11 12 12
7 9 14 12 15 10 9 8 7 6 3 6 4 1 1 2 -0 7 29 19 16 20 21 21 23 20 17 15 15 16 16 17 17 17 17 17 16 16 11 12 12 13 12 10
12 14 14 14 12 10 6 7 6 5 7 8 6 4 4 0 12 28 19 21 23 19 17 18 21 21 20 19 17 16 14 14 14 13 15 16 16 17 13 15 14 14 9 7
15 17 15 13 8 4 6 6 6 4 3 4 4 3 1 23 24 22 26 20 14 17 20 19 16 14 13 13 13 13 14 16 16 16 15 15 16 16 12 7 8 9 8 7